Wind_Speed
18 19 20 20 20 20 20 20 21 20 20 20 20 19 19 19 18 17 17 17 17 18 18 19 19 19 19 20 20 21 21 22 23 24 25 26 26 27 28 28 29 29
20 21 22 22 22 22 22 22 22 22 22 21 21 21 20 19 19 18 18 18 19 19 20 20 20 21 21 22 23 24 24 25 26 27 28 29 30 31 32 32 32 32
21 21 22 23 23 23 23 24 23 23 23 22 22 21 21 20 20 20 20 20 20 21 21 22 22 22 23 24 25 26 27 28 30 31 32 33 34 35 36 36 36 35
21 22 22 23 24 24 25 25 24 24 23 23 22 22 21 21 21 21 21 21 21 22 23 24 24 25 26 27 28 30 30 32 33 34 35 36 37 37 37 37 36 36
22 23 23 24 25 25 25 25 25 24 23 23 22 22 22 21 21 21 21 22 23 24 25 26 26 27 28 30 31 32 33 34 35 37 37 38 37 37 36 35 35 35
22 23 24 24 25 25 24 24 24 23 23 23 22 22 22 22 22 22 22 23 24 25 26 27 28 29 30 32 33 34 35 36 37 37 37 36 35 34 33 32 32 31
23 23 23 24 24 24 23 23 23 23 22 22 22 21 22 22 22 23 23 24 25 26 27 28 30 31 32 33 34 35 36 36 35 34 32 31 30 30 29 29 28 29
23 24 23 23 23 23 22 22 22 22 21 21 21 21 21 22 22 23 24 25 26 27 28 29 30 31 32 33 33 33 32 30 28 27 26 26 26 27 27 27 27 27
22 22 21 21 22 21 21 21 20 20 20 20 21 21 21 22 22 22 23 24 26 27 28 29 30 31 31 30 29 27 26 24 24 24 25 25 26 27 27 28 28 28
20 20 19 19 20 20 19 19 19 19 19 19 19 20 20 20 21 22 23 24 25 26 27 28 28 27 26 24 23 23 23 23 24 25 26 26 26 27 27 28 29 29
18 18 18 18 18 18 18 18 18 18 18 18 18 18 18 19 20 20 21 23 24 24 25 24 23 22 21 21 21 22 23 24 25 25 25 26 26 27 27 28 29 30
17 16 16 16 16 16 17 17 17 17 17 17 17 17 17 17 18 18 19 20 20 20 20 19 19 19 20 21 21 22 23 23 24 24 24 24 25 26 27 27 28 29
16 15 15 15 15 16 16 16 16 16 15 15 15 15 15 15 15 16 16 16 16 15 15 16 17 19 20 20 21 21 22 22 23 23 24 24 25 25 26 27 28 29
15 14 14 14 15 15 15 15 15 14 14 13 13 13 12 12 12 12 12 12 12 13 14 15 16 17 18 19 20 20 21 22 22 23 24 24 25 26 27 28 28 29
13 13 14 14 14 14 13 13 12 12 11 10 10 10 9 9 9 9 9 10 11 12 13 14 15 16 17 18 19 20 21 21 22 23 24 24 25 26 27 28 30 30
13 13 13 13 14 13 12 10 9 8 7 7 7 7 7 7 7 8 9 10 11 12 13 14 14 15 16 17 18 19 20 21 22 23 24 25 26 27 28 29 30 31
12 12 13 13 13 11 9 6 5 4 5 6 7 6 6 6 7 8 9 10 11 11 12 13 14 15 16 17 18 19 21 22 22 23 24 26 27 27 28 29 30 31
12 12 12 11 9 8 7 7 5 5 4 4 3 3 4 5 6 7 8 9 10 11 12 13 14 16 17 18 19 20 21 22 23 24 25 26 27 27 28 29 29 30
13 12 12 10 9 10 10 8 5 2 2 2 1 1 2 4 5 6 7 9 10 11 12 13 15 16 17 18 19 20 21 22 23 24 25 26 27 28 29 30 30 30
12 12 13 12 11 9 7 5 4 5 5 3 1 1 2 3 5 6 7 9 10 11 13 14 15 16 18 19 20 20 21 22 23 24 26 27 28 29 30 30 31 32
10 10 10 9 6 6 7 8 7 6 3 2 1 1 2 4 5 6 7 9 10 11 13 14 15 17 18 19 20 21 22 23 24 25 26 27 28 29 30 31 32 33
8 7 7 7 8 9 9 8 6 4 3 2 1 2 3 4 6 7 8 9 10 12 13 14 16 17 18 19 20 21 22 23 24 25 26 27 28 30 31 32 32 33
7 8 8 9 9 10 9 7 5 3 2 2 1 2 3 5 7 8 9 10 11 12 13 14 15 17 18 19 20 21 22 23 24 25 26 28 29 30 32 32 33 34
9 9 10 10 10 9 7 5 4 4 3 2 2 3 4 6 7 8 9 10 11 12 13 14 15 16 18 19 20 21 21 23 24 25 26 28 29 30 31 32 33 35
10 11 11 12 10 8 7 5 5 4 3 2 3 4 5 7 8 9 10 10 11 12 13 14 15 16 17 18 19 20 21 23 24 25 26 27 29 30 31 32 34 35
12 12 13 12 10 8 7 5 4 3 2 2 4 5 6 8 9 9 10 11 11 12 13 14 15 16 17 18 19 20 21 23 24 25 26 27 29 30 31 32 34 36
Wind_Direction
266 268 268 269 270 270 269 265 263 264 268 272 277 281 285 288 289 291 293 296 298 301 302 304 306 306 306 306 307 307 307 307 306 305 305 304 304 303 302 301 300 298
267 267 266 266 267 268 268 266 263 263 266 271 275 279 283 285 286 287 289 293 296 298 301 302 303 303 303 304 305 306 306 306 306 305 305 305 305 305 305 304 303 302
268 267 266 266 267 269 269 268 264 263 265 269 273 277 281 282 283 284 287 291 294 296 299 299 299 300 301 302 303 304 304 304 304 305 305 305 305 305 304 304 303 303
269 268 267 268 268 269 269 268 265 263 265 269 273 276 279 280 281 283 286 289 292 295 297 298 298 299 301 302 303 303 303 303 304 305 305 305 305 305 304 303 303 302
268 268 268 268 267 267 267 267 266 265 267 270 273 276 278 280 281 284 287 289 293 296 298 298 299 300 302 304 304 304 304 304 306 306 307 307 306 306 305 304 303 303
270 269 268 267 267 267 266 266 266 265 268 271 274 277 279 281 283 285 288 291 294 297 299 300 301 303 304 305 305 305 305 307 308 308 309 309 309 308 308 308 308 307
273 272 271 269 268 267 267 266 266 266 270 274 277 280 282 284 286 288 291 294 296 299 300 301 303 305 306 306 307 308 309 310 311 312 313 314 315 315 316 316 315 315
272 272 271 270 269 268 268 267 267 269 272 276 279 282 285 287 289 291 294 296 298 300 302 304 305 307 308 309 310 311 312 314 316 318 319 320 321 321 321 320 319 319
272 271 270 269 269 268 268 268 269 271 274 277 281 284 286 289 291 293 295 298 300 302 304 306 308 309 311 312 314 315 317 319 322 323 323 323 323 322 322 321 320 319
272 271 269 268 268 268 268 269 270 272 275 278 281 284 287 290 292 294 297 300 302 304 306 309 310 312 314 316 318 320 323 324 325 325 324 323 323 322 322 321 320 319
272 270 269 269 269 269 270 271 273 275 277 280 283 285 288 290 293 297 300 303 305 307 310 312 314 317 319 321 324 326 326 327 326 325 325 325 325 324 323 322 321 320
273 271 271 271 271 272 273 275 277 278 280 282 284 286 289 292 296 300 304 307 309 311 314 317 319 322 324 326 328 328 327 326 325 325 326 326 326 325 324 323 322 321
270 270 272 273 275 276 277 278 278 280 282 282 285 289 292 297 302 306 310 312 315 319 322 325 326 327 328 329 328 327 326 326 326 327 328 328 328 327 326 325 324 323
268 270 273 274 277 277 278 279 280 281 283 285 290 294 299 305 310 314 318 320 324 328 329 329 330 330 329 327 326 326 327 329 330 330 331 331 331 331 330 328 327 325
269 272 274 275 277 277 277 278 279 283 287 292 298 303 310 317 322 326 327 329 330 330 330 330 329 328 327 327 328 330 332 333 333 334 335 335 334 333 333 332 330 330
273 275 277 277 275 273 272 273 277 283 294 304 312 319 324 328 330 330 329 330 330 329 329 330 329 329 330 332 334 335 335 336 337 338 338 337 337 337 336 335 334 333
274 276 276 273 270 266 263 260 265 282 302 312 314 317 321 323 326 327 327 328 328 328 329 330 332 335 337 339 340 340 339 340 340 341 341 340 339 339 338 337 336 335
273 272 269 263 256 252 252 255 263 279 292 296 294 298 309 317 323 326 327 327 327 329 332 335 338 341 342 343 345 344 343 344 344 343 342 341 340 340 338 338 337 336
271 264 258 255 253 257 264 268 265 236 194 183 188 274 310 320 323 324 326 327 329 333 336 340 342 344 345 347 347 347 347 347 346 344 343 342 341 341 341 339 338 338
264 258 256 258 260 258 253 227 176 155 152 159 184 285 305 317 321 324 328 330 334 337 340 343 344 345 347 348 348 348 349 348 346 345 344 344 344 343 343 342 342 342
256 251 247 242 226 204 186 169 157 152 156 178 216 280 307 320 324 328 332 334 338 341 343 345 346 347 348 348 348 349 349 349 348 347 347 347 346 345 345 346 347 346
237 224 211 194 180 175 168 159 154 159 175 198 235 289 312 323 327 331 335 338 342 344 345 346 347 347 348 348 349 350 350 349 349 348 349 349 349 349 348 349 351 350
208 196 185 177 173 167 158 156 164 178 193 216 260 301 320 329 333 335 337 340 343 345 347 348 348 348 348 349 350 351 351 350 350 350 351 351 351 352 352 350 352 353
192 184 176 172 168 162 161 170 182 192 208 232 279 316 329 333 335 337 339 341 344 346 346 347 348 350 350 350 351 351 352 353 352 352 353 353 353 355 355 353 353 355
183 178 172 170 168 166 173 183 191 203 225 264 306 325 332 334 337 339 340 342 343 345 346 348 350 351 351 351 352 353 354 354 355 354 355 355 356 356 357 357 356 357
178 175 173 172 171 174 182 191 199 213 246 295 319 330 333 335 337 338 340 342 343 345 348 350 351 351 351 353 354 356 356 356 355 356 356 357 358 358 358 359 359 359
Height
3151 3151 3151 3152 3152 3152 3152 3152 3153 3153 3153 3153 3153 3153 3153 3152 3152 3152 3151 3150 3150 3149 3149 3148 3147 3146 3145 3144 3143 3142 3141 3140 3139 3137 3136 3135 3133 3132 3131 3129 3128 3126
3150 3150 3150 3150 3150 3150 3150 3151 3151 3151 3151 3151 3151 3151 3151 3151 3150 3150 3149 3149 3148 3148 3147 3146 3145 3145 3144 3142 3141 3140 3139 3137 3136 3135 3133 3132 3130 3129 3127 3125 3124 3122
3148 3148 3148 3148 3148 3149 3149 3149 3149 3149 3149 3149 3149 3149 3149 3149 3148 3148 3148 3147 3147 3146 3145 3145 3144 3143 3142 3140 3139 3138 3136 3135 3133 3132 3130 3128 3127 3125 3123 3121 3119 3118
3146 3147 3147 3147 3147 3147 3147 3147 3147 3147 3148 3148 3148 3147 3147 3147 3146 3146 3146 3145 3145 3144 3143 3143 3142 3140 3139 3138 3137 3135 3134 3132 3130 3129 3127 3125 3123 3121 3119 3117 3115 3113
3145 3145 3145 3145 3145 3145 3145 3145 3145 3146 3146 3146 3146 3146 3145 3145 3144 3144 3144 3143 3143 3142 3141 3140 3139 3138 3137 3135 3134 3132 3130 3129 3127 3125 3123 3121 3119 3117 3115 3113 3111 3109
3143 3143 3143 3143 3143 3144 3144 3144 3144 3144 3144 3144 3144 3144 3143 3143 3142 3142 3142 3141 3141 3140 3139 3138 3137 3135 3134 3132 3131 3129 3127 3125 3123 3121 3119 3117 3115 3112 3111 3109 3106 3105
3141 3141 3141 3141 3141 3142 3142 3142 3142 3142 3142 3142 3142 3142 3141 3141 3140 3140 3140 3139 3138 3138 3137 3136 3134 3133 3131 3130 3128 3126 3124 3122 3120 3118 3115 3113 3111 3109 3107 3105 3103 3101
3139 3139 3139 3139 3139 3140 3140 3140 3140 3141 3141 3140 3140 3140 3139 3139 3138 3138 3137 3137 3136 3135 3134 3133 3131 3130 3128 3127 3125 3123 3121 3119 3117 3115 3113 3111 3109 3106 3104 3102 3100 3098
3137 3137 3137 3137 3138 3138 3138 3139 3139 3139 3139 3138 3138 3138 3137 3137 3136 3136 3136 3135 3134 3133 3132 3130 3129 3127 3126 3124 3122 3121 3119 3117 3115 3113 3111 3109 3107 3104 3102 3100 3098 3096
3135 3135 3136 3136 3136 3137 3137 3137 3137 3137 3137 3136 3136 3136 3136 3135 3135 3134 3134 3133 3132 3130 3129 3128 3126 3125 3123 3122 3120 3119 3117 3115 3113 3111 3109 3107 3105 3102 3100 3098 3095 3093
3134 3134 3134 3134 3135 3135 3135 3135 3135 3135 3135 3135 3135 3134 3134 3134 3133 3132 3131 3130 3129 3128 3127 3126 3124 3123 3121 3120 3119 3117 3115 3113 3111 3109 3107 3105 3103 3100 3098 3095 3093 3090
3132 3132 3132 3133 3133 3134 3134 3134 3134 3134 3133 3133 3133 3132 3132 3131 3131 3130 3129 3128 3127 3126 3125 3124 3123 3121 3120 3118 3117 3115 3113 3112 3110 3108 3105 3103 3101 3098 3095 3093 3090 3088
3130 3131 3131 3132 3132 3132 3132 3132 3132 3132 3131 3131 3131 3130 3130 3130 3129 3128 3127 3127 3126 3125 3124 3122 3121 3120 3118 3117 3115 3113 3112 3110 3108 3105 3103 3101 3098 3096 3093 3091 3088 3085
3129 3129 3130 3130 3131 3131 3131 3130 3130 3130 3130 3130 3129 3129 3128 3128 3127 3126 3126 3125 3124 3124 3123 3122 3120 3119 3117 3116 3114 3112 3110 3108 3106 3103 3101 3099 3096 3094 3091 3088 3085 3083
3128 3128 3129 3129 3129 3129 3129 3129 3129 3129 3129 3128 3128 3128 3127 3126 3126 3125 3125 3124 3123 3123 3122 3121 3119 3118 3116 3115 3113 3110 3108 3106 3104 3102 3099 3097 3094 3092 3089 3086 3083 3080
3126 3127 3127 3127 3127 3127 3127 3127 3128 3128 3128 3127 3127 3127 3126 3126 3125 3125 3124 3123 3123 3122 3121 3119 3118 3117 3115 3113 3111 3109 3107 3105 3102 3100 3097 3095 3092 3090 3087 3084 3081 3077
3125 3125 3126 3126 3126 3126 3126 3126 3126 3126 3126 3126 3126 3126 3126 3125 3125 3124 3123 3123 3122 3121 3119 3118 3117 3115 3113 3112 3110 3107 3105 3103 3101 3098 3096 3093 3090 3088 3085 3082 3079 3076
3124 3124 3124 3125 3125 3125 3125 3125 3124 3124 3125 3125 3125 3125 3125 3124 3124 3123 3123 3121 3120 3119 3118 3117 3115 3113 3112 3110 3108 3106 3104 3101 3099 3096 3094 3091 3089 3086 3084 3081 3078 3075
3122 3123 3123 3124 3124 3124 3124 3124 3123 3123 3123 3124 3124 3124 3124 3124 3123 3122 3121 3120 3119 3118 3116 3115 3113 3112 3110 3108 3106 3104 3102 3100 3098 3095 3093 3090 3087 3085 3082 3079 3075 3072
3121 3122 3122 3122 3123 3123 3123 3123 3123 3123 3123 3123 3123 3123 3123 3123 3122 3121 3120 3119 3118 3116 3115 3114 3112 3110 3109 3107 3105 3103 3101 3099 3096 3094 3091 3088 3086 3083 3080 3076 3072 3069
3119 3120 3121 3121 3122 3122 3122 3123 3123 3123 3123 3123 3123 3123 3122 3122 3121 3120 3119 3118 3117 3115 3114 3112 3111 3109 3107 3106 3104 3102 3100 3098 3095 3092 3090 3087 3084 3081 3077 3074 3070 3066
3118 3119 3119 3120 3121 3121 3122 3122 3122 3122 3122 3122 3122 3122 3121 3121 3120 3119 3118 3117 3116 3114 3113 3111 3110 3108 3106 3105 3103 3101 3099 3096 3094 3091 3088 3085 3082 3078 3075 3071 3068 3064
3117 3118 3119 3119 3120 3120 3121 3121 3121 3122 3122 3122 3122 3121 3121 3120 3119 3118 3117 3116 3115 3113 3112 3111 3109 3107 3105 3104 3102 3100 3098 3095 3093 3090 3087 3084 3080 3077 3073 3070 3066 3063
3116 3117 3118 3119 3119 3120 3120 3120 3121 3121 3121 3121 3121 3120 3120 3119 3118 3117 3116 3115 3114 3113 3111 3110 3108 3106 3105 3103 3101 3099 3097 3094 3091 3088 3085 3082 3079 3076 3072 3068 3065 3061
3115 3116 3117 3118 3119 3119 3120 3120 3120 3121 3121 3120 3120 3119 3119 3118 3117 3116 3115 3114 3113 3112 3110 3109 3107 3106 3104 3102 3100 3098 3095 3093 3090 3087 3084 3081 3078 3075 3071 3068 3064 3060
3114 3116 3117 3117 3118 3118 3119 3120 3120 3120 3120 3119 3119 3118 3118 3117 3116 3115 3114 3113 3112 3111 3109 3108 3106 3105 3103 3101 3099 3097 3094 3092 3089 3087 3084 3080 3077 3074 3070 3067 3063 3059